Date String (YYYY-MM-DD hh:mm:ss) UTC,Instrument flags,Ambient pressure (hPa),Sample flow (lpm),Bypass flow (lpm),Sample temperature (°C),Ambient temperature (°C),ASC tube jacket temperature (°C),LED temperature (°C),Box temperature (°C),Sample RH (%),Span deviation,Mass concentration (μg/m³),Mass concentration (μg/m³),Mass concentration (μg/m³)
DateTimeUTC,F1_M11,P_M11,Q1_M11,Q2_M11,T1_M11,T2_M11,T3_M11,T4_M11,T5_M11,U1_M11,ZSPAN_M11,X2_M11,X0_M11,X1_M11
2022-09-06 11:00:00,,0829.5,4.98,0.00,30.3,28.8,00.0,39.0,32.1,15.9,0000.0,0008.01,0014.92,0006.97
2022-09-06 11:01:00,,0829.5,5.01,0.00,30.3,27.4,00.0,39.0,32.0,16.0,0000.0,0008.08,0015.16,0006.99
2022-09-06 11:02:00,,0829.5,4.99,0.00,30.2,27.1,00.0,39.0,32.0,16.1,0000.0,0008.17,0015.41,0007.02
2022-09-06 11:03:00,,0829.5,4.99,0.00,30.2,27.3,00.0,38.9,31.8,16.3,0000.0,0008.27,0015.60,0007.08
2022-09-06 11:04:00,,0829.5,5.00,0.00,30.1,27.6,00.0,38.9,31.7,16.5,0000.0,0008.29,0015.59,0007.14
2022-09-06 11:05:00,,0829.5,5.01,0.00,30.1,27.9,00.0,38.9,31.8,16.4,0000.0,0008.34,0015.79,0007.20
2022-09-06 11:06:00,,0829.5,5.00,0.00,30.1,28.2,00.0,38.9,31.8,16.5,0000.0,0008.41,0015.85,0007.26
2022-09-06 11:07:00,,0829.5,5.00,0.00,30.1,28.3,00.0,38.9,31.8,16.7,0000.0,0008.47,0016.01,0007.34
2022-09-06 11:08:00,,0829.5,5.01,0.00,30.1,28.5,00.0,38.9,31.9,16.7,0000.0,0008.54,0016.36,0007.40
2022-09-06 11:09:00,,0829.5,5.01,0.00,30.1,28.6,00.0,38.9,31.9,16.6,-000.6,0008.59,0016.11,0007.46
2022-09-06 11:10:00,,0829.5,4.98,0.00,30.1,28.8,00.0,38.9,31.9,16.6,-000.6,0008.71,0016.44,0007.53
2022-09-06 11:11:00,,0829.5,5.01,0.00,30.1,28.8,00.0,38.9,32.0,16.7,-000.5,0008.79,0017.23,0007.61
2022-09-06 11:12:00,,0829.5,4.99,0.00,30.1,28.9,00.0,38.9,32.0,16.7,0000.0,0008.87,0018.64,0007.69
2022-09-06 11:13:00,,0829.5,5.00,0.00,30.1,29.0,00.0,38.9,32.0,16.6,0000.0,0008.96,0018.86,0007.76
2022-09-06 11:14:00,,0829.5,5.00,0.00,30.2,29.0,00.0,38.9,32.0,16.6,0000.0,0008.96,0017.94,0007.80
2022-09-06 11:15:00,,0829.5,4.99,0.00,30.2,29.1,00.0,38.9,32.0,16.5,0000.0,0009.04,0018.61,0007.82
2022-09-06 11:16:00,,0829.5,5.01,0.00,30.2,29.1,00.0,39.0,32.1,16.5,0000.0,0009.08,0018.37,0007.85
2022-09-06 11:17:00,,0829.5,4.99,0.00,30.2,29.1,00.0,39.0,32.1,16.5,0000.0,0009.14,0018.36,0007.89
2022-09-06 11:18:00,,0829.5,5.01,0.00,30.2,29.2,00.0,39.0,32.1,16.5,0000.0,0009.21,0018.56,0007.91
2022-09-06 11:19:00,,0829.5,5.01,0.00,30.3,29.2,00.0,39.0,32.1,16.4,0000.0,0009.25,0018.42,0007.94
2022-09-06 11:20:00,,0829.5,4.99,0.00,30.3,29.2,00.0,39.0,32.1,16.2,0000.0,0009.32,0018.22,0007.96
2022-09-06 11:21:00,,0829.5,5.01,0.00,30.3,29.2,00.0,39.1,32.2,16.5,0000.0,0009.31,0018.13,0007.99
2022-09-06 11:22:00,,0829.5,4.99,0.00,30.3,29.3,00.0,39.1,32.2,16.7,0000.0,0009.33,0017.37,0008.03
2022-09-06 11:23:00,,0829.5,5.01,0.00,30.4,29.3,00.0,39.1,32.2,16.5,0000.0,0009.32,0016.76,0008.05
2022-09-06 11:24:00,,0829.5,5.00,0.00,30.4,29.2,00.0,39.1,32.2,16.1,0000.0,0009.28,0016.75,0008.03
2022-09-06 11:25:00,,0829.5,5.00,0.00,30.4,27.9,00.0,39.1,32.1,16.1,0000.0,0009.25,0016.91,0008.02
2022-09-06 11:26:00,,0829.5,5.00,0.00,30.3,27.1,00.0,39.0,32.0,16.1,0000.0,0009.25,0016.47,0008.03
2022-09-06 11:27:00,,0829.5,5.01,0.00,30.2,27.1,00.0,39.0,31.9,16.3,0000.0,0009.27,0017.07,0008.04
2022-09-06 11:28:00,,0829.5,5.00,0.00,30.2,27.4,00.0,39.0,31.8,16.1,0000.0,0009.28,0016.89,0008.03
2022-09-06 11:29:00,,0829.5,4.99,0.00,30.1,27.8,00.0,38.9,31.8,16.3,0000.0,0009.29,0017.21,0008.01
2022-09-06 11:30:00,,0829.5,5.01,0.00,30.1,28.0,00.0,38.9,31.8,16.3,0000.0,0009.26,0017.80,0008.00
2022-09-06 11:31:00,,0829.5,4.99,0.00,30.1,28.2,00.0,38.9,31.8,16.2,0000.0,0009.21,0018.00,0007.99
2022-09-06 11:32:00,,0829.5,5.00,0.00,30.1,28.4,00.0,38.9,31.9,16.2,0000.0,0009.14,0017.79,0007.94
2022-09-06 11:33:00,,0829.5,5.00,0.00,30.1,28.5,00.0,38.9,31.9,16.3,0000.0,0009.12,0017.76,0007.88
2022-09-06 11:34:00,,0829.5,5.01,0.00,30.1,28.7,00.0,38.9,31.9,16.4,0000.0,0009.13,0017.09,0007.85
2022-09-06 11:35:00,,0829.5,4.98,0.00,30.1,28.8,00.0,38.9,31.9,16.2,0000.0,0009.15,0017.08,0007.85
2022-09-06 11:36:00,,0829.5,5.01,0.00,30.1,28.8,00.0,38.9,32.0,16.0,0000.0,0009.15,0017.09,0007.82
2022-09-06 11:37:00,,0829.6,5.01,0.00,30.1,28.9,00.0,38.9,32.0,16.0,0000.0,0009.09,0016.74,0007.77
2022-09-06 11:38:00,,0829.6,4.99,0.00,30.2,29.0,00.0,38.9,32.0,15.9,0000.0,0009.01,0016.16,0007.71
2022-09-06 11:39:00,,0829.5,5.01,0.00,30.2,29.0,00.0,38.9,32.0,15.9,0000.0,0008.87,0016.09,0007.64
2022-09-06 11:40:00,,0829.6,5.01,0.00,30.2,29.1,00.0,39.0,32.0,15.8,0000.0,0008.77,0016.42,0007.58
2022-09-06 11:41:00,,0829.6,4.99,0.00,30.2,29.1,00.0,39.0,32.1,15.8,0000.0,0008.66,0016.05,0007.48
2022-09-06 11:42:00,,0829.7,5.01,0.00,30.2,29.2,00.0,39.0,32.1,15.7,0000.0,0008.54,0015.62,0007.38
2022-09-06 11:43:00,,0829.6,4.99,0.00,30.3,29.2,00.0,39.0,32.1,15.7,0000.0,0008.47,0015.48,0007.31
2022-09-06 11:44:00,,0829.7,5.00,0.00,30.3,29.2,00.0,39.0,32.1,15.6,0000.0,0008.34,0015.27,0007.23
2022-09-06 11:45:00,,0829.7,5.00,0.00,30.3,29.2,00.0,39.0,32.1,15.6,0000.0,0008.16,0014.88,0007.12
2022-09-06 11:46:00,,0829.6,5.00,0.00,30.3,29.3,00.0,39.1,32.2,15.6,0000.0,0007.99,0014.46,0007.01
2022-09-06 11:47:00,,0829.6,5.01,0.00,30.4,29.3,00.0,39.1,32.2,15.6,0000.0,0007.93,0014.27,0006.93
2022-09-06 11:48:00,,0829.6,4.99,0.00,30.4,29.3,00.0,39.1,32.2,15.6,0000.0,0007.86,0015.06,0006.87
2022-09-06 11:49:00,,0829.6,5.00,0.00,30.4,28.8,00.0,39.1,32.2,15.5,0000.0,0007.81,0015.14,0006.83
2022-09-06 11:50:00,,0829.7,4.99,0.00,30.3,27.5,00.0,39.1,32.0,15.5,0000.0,0007.80,0015.15,0006.78
2022-09-06 11:51:00,,0829.6,5.01,0.00,30.3,27.2,00.0,39.1,32.0,15.6,0000.0,0007.78,0014.50,0006.74
2022-09-06 11:52:00,,0829.6,5.00,0.00,30.2,27.3,00.0,39.0,31.9,15.6,0000.0,0007.82,0013.98,0006.75
2022-09-06 11:53:00,,0829.7,5.00,0.00,30.2,27.6,00.0,39.0,31.8,15.6,0000.0,0007.81,0014.26,0006.76
2022-09-06 11:54:00,,0829.7,4.99,0.00,30.1,27.9,00.0,39.0,31.9,15.6,0000.0,0007.84,0014.71,0006.75
2022-09-06 11:55:00,,0829.7,5.01,0.00,30.1,28.2,00.0,39.0,31.9,15.6,0000.0,0007.88,0014.94,0006.77
2022-09-06 11:56:00,,0829.7,5.00,0.00,30.1,28.4,00.0,38.9,31.9,15.8,0000.0,0007.89,0015.49,0006.78
2022-09-06 11:57:00,,0829.8,5.00,0.00,30.1,28.5,00.0,38.9,31.9,15.8,0000.0,0007.91,0016.19,0006.80
2022-09-06 11:58:00,,0829.7,5.00,0.00,30.1,28.7,00.0,38.9,31.9,15.7,0000.0,0007.88,0016.46,0006.81
2022-09-06 11:59:00,,0829.7,5.00,0.00,30.1,28.8,00.0,38.9,32.0,15.7,0000.0,0007.89,0015.45,0006.83
